N5CSU Weather Reports


time (UTC)temp
C
wind
direction
speed
KPH
gust
KPH
rain 1hr
cm
rain 24hr
cm
rain mn
cm
humidity
%
barometer
mb
20260503203824 27 174 0.0 0.0 0.00 0.00 0.00 38 1017.9
20260503203321 27 196 0.0 0.0 0.00 0.00 0.00 35 1018.0
20260503202818 26 186 0.0 0.0 0.00 0.00 0.00 36 1018.2
20260503202316 26 191 0.0 0.0 0.00 0.00 0.00 35 1018.3
20260503201814 26 179 0.0 1.6 0.00 0.00 0.00 36 1018.3
20260503201311 27 181 1.6 3.2 0.00 0.00 0.00 35 1018.4
20260503200808 27 201 1.6 3.2 0.00 0.00 0.00 33 1018.6
20260503200304 27 191 0.0 1.6 0.00 0.00 0.00 31 1018.5
20260503195802 27 186 0.0 0.0 0.00 0.00 0.00 34 1018.6
20260503195258 27 191 0.0 1.6 0.00 0.00 0.00 34 1018.7
20260503194755 26 197 0.0 0.0 0.00 0.00 0.00 34 1018.8
20260503194251 27 168 4.8 4.8 0.00 0.00 0.00 35 1018.8
20260503193747 27 239 0.0 0.0 0.00 0.00 0.00 38 1018.8
20260503193243 27 188 0.0 0.0 0.00 0.00 0.00 35 1019.1
20260503192739 27 284 0.0 0.0 0.00 0.00 0.00 37 1018.9
20260503192234 26 203 0.0 0.0 0.00 0.00 0.00 37 1019.1
20260503191731 26 188 0.0 0.0 0.00 0.00 0.00 40 1019.2
20260503191228 26 203 0.0 0.0 0.00 0.00 0.00 39 1019.2
20260503190725 26 176 0.0 0.0 0.00 0.00 0.00 40 1019.4
20260503190221 26 218 0.0 0.0 0.00 0.00 0.00 36 1019.5
20260503185719 26 189 0.0 0.0 0.00 0.00 0.00 39 1019.4
20260503185214 26 174 0.0 1.6 0.00 0.00 0.00 39 1019.5
20260503184709 26 209 0.0 0.0 0.00 0.00 0.00 42 1019.6
20260503184206 26 198 0.0 0.0 0.00 0.00 0.00 41 1019.6
20260503183702 26 191 1.6 1.6 0.00 0.00 0.00 37 1019.7
20260503183159 26 330 1.6 1.6 0.00 0.00 0.00 40 1019.7
20260503182657 26 186 0.0 0.0 0.00 0.00 0.00 41 1020.0
20260503182155 26 166 3.2 3.2 0.00 0.00 0.00 38 1020.0
20260503181652 26 226 0.0 1.6 0.00 0.00 0.00 43 1020.3
20260503181149 26 202 0.0 0.0 0.00 0.00 0.00 40 1020.2
20260503180646 26 175 0.0 0.0 0.00 0.00 0.00 43 1020.3
20260503180144 26 173 1.6 3.2 0.00 0.00 0.00 42 1020.3
20260503175640 26 209 0.0 0.0 0.00 0.00 0.00 42 1020.5
20260503175138 25 167 1.6 1.6 0.00 0.00 0.00 43 1020.6
20260503174634 25 192 0.0 0.0 0.00 0.00 0.00 43 1020.7
20260503174131 25 207 0.0 0.0 0.00 0.00 0.00 43 1020.7
20260503173626 25 166 1.6 3.2 0.00 0.00 0.00 43 1020.9
20260503173123 25 169 1.6 3.2 0.00 0.00 0.00 43 1021.0
20260503172620 25 241 1.6 1.6 0.00 0.00 0.00 47 1021.1
20260503172118 25 201 1.6 1.6 0.00 0.00 0.00 46 1021.3
20260503171614 25 205 0.0 0.0 0.00 0.00 0.00 43 1021.1
20260503171111 25 186 0.0 1.6 0.00 0.00 0.00 46 1021.1
20260503170608 25 194 0.0 0.0 0.00 0.00 0.00 46 1021.2
20260503170105 25 186 1.6 1.6 0.00 0.00 0.00 48 1021.4
20260503151000 22 215 0.0 0.0 0.00 0.00 0.00 52 1021.8
20260503150456 21 199 0.0 0.0 0.00 0.00 0.00 55 1021.7
20260503131343 12 177 0.0 0.0 0.00 0.00 0.00 95 1021.6
20260503130841 12 177 0.0 0.0 0.00 0.00 0.00 95 1021.4
20260503130338 11 177 0.0 0.0 0.00 0.00 0.00 95 1021.4
20260503110732 10 179 0.0 0.0 0.00 0.00 0.00 93 1020.7
20260503110229 10 179 0.0 0.0 0.00 0.00 0.00 93 1020.6
20260503100155 10 179 0.0 0.0 0.00 0.00 0.00 93 1020.6
20260503090115 10 172 0.0 0.0 0.00 0.00 0.00 91 1020.4
20260503081550 11 172 0.0 0.0 0.00 0.00 0.00 89 1020.2
20260503081048 11 172 0.0 0.0 0.00 0.00 0.00 89 1020.2
20260503080544 11 172 0.0 0.0 0.00 0.00 0.00 89 1020.4
20260503072513 12 171 0.0 0.0 0.00 0.00 0.00 86 1020.5
20260503072009 12 171 0.0 0.0 0.00 0.00 0.00 86 1020.4
20260503071506 12 171 0.0 0.0 0.00 0.00 0.00 86 1020.6
20260503071003 12 171 0.0 0.0 0.00 0.00 0.00 85 1020.7
20260503070459 12 171 0.0 0.0 0.00 0.00 0.00 85 1020.8
20260503054912 13 171 0.0 0.0 0.00 0.00 0.00 79 1020.6
20260503054408 13 171 0.0 0.0 0.00 0.00 0.00 79 1020.6
20260503053906 13 171 0.0 0.0 0.00 0.00 0.00 78 1020.2
20260503053404 13 171 0.0 0.0 0.00 0.00 0.00 77 1020.3
20260503052859 13 171 0.0 0.0 0.00 0.00 0.00 77 1020.3
20260503052357 13 171 0.0 0.0 0.00 0.00 0.00 76 1020.4
20260503051853 14 171 0.0 0.0 0.00 0.00 0.00 76 1020.4
20260503051349 14 171 0.0 0.0 0.00 0.00 0.00 75 1020.3
20260503050846 14 171 0.0 0.0 0.00 0.00 0.00 74 1020.2
20260503050343 15 171 0.0 0.0 0.00 0.00 0.00 74 1020.4
20260503045840 15 171 0.0 0.0 0.00 0.00 0.00 73 1020.2
20260503045338 15 171 0.0 0.0 0.00 0.00 0.00 72 1020.1
20260503044834 15 171 0.0 0.0 0.00 0.00 0.00 71 1020.3
20260503044331 15 171 0.0 0.0 0.00 0.00 0.00 69 1020.2
20260503043828 15 171 0.0 0.0 0.00 0.00 0.00 68 1020.2
20260503043325 15 171 0.0 0.0 0.00 0.00 0.00 68 1020.2
20260503042821 15 171 0.0 0.0 0.00 0.00 0.00 69 1020.3
20260503042318 15 171 0.0 0.0 0.00 0.00 0.00 67 1020.3
20260503041814 15 167 0.0 0.0 0.00 0.00 0.00 69 1020.1
20260503041312 15 167 0.0 0.0 0.00 0.00 0.00 69 1020.3
20260503040809 15 166 0.0 0.0 0.00 0.00 0.00 70 1020.3
20260503040307 15 167 0.0 0.0 0.00 0.00 0.00 70 1020.3
20260503035803 15 166 0.0 0.0 0.00 0.00 0.00 69 1020.5
20260503035301 15 164 0.0 0.0 0.00 0.00 0.00 70 1020.1
20260503034758 15 163 0.0 0.0 0.00 0.00 0.00 69 1020.1
20260503034255 15 178 0.0 0.0 0.00 0.00 0.00 71 1020.1
20260503033752 15 178 0.0 0.0 0.00 0.00 0.00 71 1020.0
20260503033250 15 185 0.0 0.0 0.00 0.00 0.00 73 1020.0
20260503032748 15 185 0.0 0.0 0.00 0.00 0.00 73 1020.1
20260503032246 15 185 0.0 0.0 0.00 0.00 0.00 72 1020.1
20260503031743 15 185 0.0 0.0 0.00 0.00 0.00 73 1020.0
20260503031241 15 185 0.0 0.0 0.00 0.00 0.00 74 1020.1
20260503030737 15 185 0.0 0.0 0.00 0.00 0.00 74 1020.1
20260503030234 15 185 0.0 0.0 0.00 0.00 0.00 74 1019.9
20260503025730 15 185 0.0 0.0 0.00 0.00 0.00 74 1019.9
20260503025228 15 185 0.0 0.0 0.00 0.00 0.00 74 1019.9
20260503024724 15 185 0.0 0.0 0.00 0.00 0.00 74 1019.7
20260503024222 15 185 0.0 0.0 0.00 0.00 0.00 74 1019.9
20260503023719 15 185 0.0 0.0 0.00 0.00 0.00 74 1019.8
20260503023215 15 185 0.0 0.0 0.00 0.00 0.00 73 1019.7
20260503022711 16 185 0.0 0.0 0.00 0.00 0.00 72 1019.8
20260503022211 16 185 0.0 0.0 0.00 0.00 0.00 72 1019.6
20260503021708 16 185 0.0 0.0 0.00 0.00 0.00 72 1019.6
20260503021204 16 185 0.0 0.0 0.00 0.00 0.00 71 1019.6
20260503020702 16 183 0.0 0.0 0.00 0.00 0.00 71 1019.4
20260503020159 16 183 0.0 0.0 0.00 0.00 0.00 70 1019.5
20260503015656 16 183 0.0 0.0 0.00 0.00 0.00 69 1019.4
20260503015153 17 183 0.0 0.0 0.00 0.00 0.00 68 1019.3
20260503014649 17 182 0.0 0.0 0.00 0.00 0.00 68 1019.5
20260503014147 17 183 0.0 0.0 0.00 0.00 0.00 67 1019.2
20260503013644 17 183 0.0 0.0 0.00 0.00 0.00 65 1019.2
20260503013142 17 183 0.0 0.0 0.00 0.00 0.00 63 1019.2
20260503012638 18 183 0.0 0.0 0.00 0.00 0.00 61 1019.1
20260503012135 18 183 0.0 0.0 0.00 0.00 0.00 61 1019.1
20260503011632 18 183 0.0 0.0 0.00 0.00 0.00 59 1019.1
20260503011129 18 183 0.0 0.0 0.00 0.00 0.00 59 1019.1
20260503010625 19 180 0.0 0.0 0.00 0.00 0.00 57 1018.9
20260503010123 19 180 0.0 0.0 0.00 0.00 0.00 56 1019.0
20260503005620 20 181 0.0 0.0 0.00 0.00 0.00 54 1019.0
20260503005117 20 181 0.0 0.0 0.00 0.00 0.00 52 1019.0
20260503004613 20 180 0.0 0.0 0.00 0.00 0.00 51 1018.8
20260503004112 21 180 0.0 0.0 0.00 0.00 0.00 50 1019.1
20260503003608 21 180 0.0 0.0 0.00 0.00 0.00 49 1018.8
20260503003105 21 180 0.0 0.0 0.00 0.00 0.00 48 1018.8
20260503002602 21 180 0.0 0.0 0.00 0.00 0.00 47 1018.9
20260503002059 21 180 0.0 0.0 0.00 0.00 0.00 47 1018.7
20260503001555 21 181 0.0 0.0 0.00 0.00 0.00 47 1018.7
20260503001052 22 178 0.0 0.0 0.00 0.00 0.00 43 1018.9
20260503000550 22 178 0.0 0.0 0.00 0.00 0.00 43 1018.7
20260503000047 22 178 0.0 0.0 0.00 0.00 0.00 41 1018.8
20260502235543 22 178 0.0 0.0 0.00 0.00 0.00 39 1018.9
20260502235041 22 171 0.0 0.0 0.00 0.00 0.00 36 1018.8
20260502234537 22 179 0.0 0.0 0.00 0.00 0.00 38 1019.1
20260502234035 23 183 0.0 0.0 0.00 0.00 0.00 38 1019.0
20260502233530 23 180 0.0 0.0 0.00 0.00 0.00 39 1019.1
20260502233027 23 185 0.0 0.0 0.00 0.00 0.00 38 1019.1
20260502232523 23 181 0.0 0.0 0.00 0.00 0.00 37 1018.8
20260502232021 23 187 0.0 0.0 0.00 0.00 0.00 39 1019.0
20260502231517 23 177 0.0 0.0 0.00 0.00 0.00 38 1019.0
20260502231015 23 170 0.0 0.0 0.00 0.00 0.00 34 1019.1
20260502230514 23 183 0.0 0.0 0.00 0.00 0.00 36 1019.1
20260502230012 23 181 0.0 0.0 0.00 0.00 0.00 35 1019.1
20260502225512 23 182 0.0 0.0 0.00 0.00 0.00 38 1018.9
20260502225009 23 176 0.0 0.0 0.00 0.00 0.00 35 1019.2
20260502224505 23 149 0.0 0.0 0.00 0.00 0.00 37 1019.1
20260502224002 23 186 0.0 0.0 0.00 0.00 0.00 35 1019.0
20260502223500 23 175 0.0 0.0 0.00 0.00 0.00 35 1019.2
20260502222958 23 165 0.0 0.0 0.00 0.00 0.00 40 1019.2
20260502222455 23 175 0.0 0.0 0.00 0.00 0.00 35 1019.3
20260502221951 23 170 0.0 0.0 0.00 0.00 0.00 36 1019.2
20260502221447 23 189 0.0 0.0 0.00 0.00 0.00 38 1019.3
20260502220944 23 171 0.0 0.0 0.00 0.00 0.00 34 1019.3
20260502220440 23 175 1.6 1.6 0.00 0.00 0.00 36 1019.1
20260502215937 23 190 0.0 0.0 0.00 0.00 0.00 35 1019.3
20260502215434 23 144 1.6 1.6 0.00 0.00 0.00 34 1019.3
20260502214931 23 156 0.0 0.0 0.00 0.00 0.00 33 1019.5
20260502214428 23 190 0.0 0.0 0.00 0.00 0.00 37 1019.4
20260502213925 23 185 0.0 0.0 0.00 0.00 0.00 36 1019.4
20260502213422 23 183 0.0 0.0 0.00 0.00 0.00 39 1019.6
20260502212921 23 178 1.6 1.6 0.00 0.00 0.00 37 1019.6
20260502212419 23 182 1.6 1.6 0.00 0.00 0.00 36 1019.6
20260502211916 23 190 0.0 0.0 0.00 0.00 0.00 34 1019.7
20260502211411 23 183 0.0 0.0 0.00 0.00 0.00 36 1019.6
20260502210909 24 183 0.0 0.0 0.00 0.00 0.00 35 1019.9
20260502210406 24 179 0.0 0.0 0.00 0.00 0.00 37 1019.9
20260502205903 23 178 0.0 0.0 0.00 0.00 0.00 38 1020.1
20260502205359 23 155 0.0 0.0 0.00 0.00 0.00 39 1019.9
20260502204856 23 182 0.0 0.0 0.00 0.00 0.00 36 1020.0
20260502204353 23 179 0.0 0.0 0.00 0.00 0.00 35 1020.3
20260502203851 23 171 0.0 1.6 0.00 0.00 0.00 33 1020.2